Weather History for KHEI - November, 2012

Change the Weather History Date:

Tuesday, November 27, 2012

  Actual Average Record
Temperature  
Mean Temperature 24 °F -  
Max Temperature 41 °F 35 °F 55 °F (2011)
Min Temperature 11 °F 12 °F 3 °F (1996)
Degree Days  
Heating Degree Days 39 41  
Month to date heating degree days 950  
Since 1 July heating degree days 2005  
Moisture  
Dew Point 13 °F    
Average Humidity 76    
Maximum Humidity 92    
Minimum Humidity 36    
Precipitation  
Precipitation 0.00 in 0.00 in 0.01 in (2001)
Month to date precipitation 0.06 0.59  
Year to date precipitation 14.58 15.78  
Sea Level Pressure  
Sea Level Pressure 30.23 in    
Wind  
Wind Speed 4 mph (WNW)    
Max Wind Speed 13 mph    
Max Gust Speed -    
Visibility 10 miles    
Events      
T = Trace of Precipitation, MM = Missing Value Source: NWS Daily Summary

Daily Weather History Graph

Daily Weather History Graph

Search for Another Location

Airport or City:

Trip Planner

Search our weather history database for the weather conditions in past years. The results will help you decide how hot, cold, wet, or windy it might be!

Date:

Astronomy

Nov. 27, 2012 Rise Set
Actual Time 7:07 AM MST 4:08 PM MST
Civil Twilight 6:34 AM MST 4:42 PM MST
Nautical Twilight 5:57 AM MST 5:19 PM MST
Astronomical Twilight 5:21 AM MST 5:55 PM MST
Moon 3:42 PM MST (11/27) 6:13 AM MST (11/27)
Length of Visible Light 10h 07m
Length of Day
9h 00m
Waxing Gibbous, 99% of the Moon is Illuminated
Nov 27
Waxing Gibbous
Nov 28
Full
Dec 6
Last Quarter
Dec 13
New
Dec 19
First Quarter

Hourly Weather History & Observations

Time (MST) Temp. Windchill Dew Point Humidity Pressure Visibility Wind Dir Wind Speed Gust Speed Precip Events Conditions
12:53 AM 19.0 °F 12.3 °F 16.0 °F 88% 30.18 in 10.0 mi WSW 4.6 mph - N/A   Clear
1:53 AM 19.9 °F - 16.0 °F 85% 30.17 in 10.0 mi Calm Calm - N/A   Clear
2:53 AM 15.1 °F 7.7 °F 12.0 °F 88% 30.17 in 10.0 mi WNW 4.6 mph - N/A   Clear
3:53 AM 16.0 °F 7.4 °F 12.9 °F 88% 30.17 in 10.0 mi NW 5.8 mph - N/A   Clear
4:53 AM 10.9 °F -0.8 °F 9.0 °F 92% 30.19 in 10.0 mi WNW 8.1 mph - N/A   Clear
5:53 AM 14.0 °F 3.9 °F 10.9 °F 88% 30.19 in 10.0 mi WNW 6.9 mph - N/A   Clear
6:53 AM 15.1 °F 6.4 °F 12.0 °F 88% 30.20 in 10.0 mi West 5.8 mph - N/A   Clear
7:53 AM 18.0 °F 12.7 °F 14.0 °F 84% 30.21 in 10.0 mi WNW 3.5 mph - N/A   Clear
8:53 AM 21.9 °F - 19.0 °F 89% 30.22 in 10.0 mi Calm Calm - N/A   Clear
9:53 AM 27.0 °F 20.5 °F 21.9 °F 81% 30.23 in 10.0 mi WNW 5.8 mph - N/A   Clear
10:53 AM 35.1 °F 26.4 °F 23.0 °F 61% 30.20 in 10.0 mi West 12.7 mph - N/A   Clear
11:53 AM 39.0 °F 33.4 °F 19.0 °F 45% 30.19 in 10.0 mi WNW 8.1 mph - N/A   Clear
1:53 PM 39.0 °F 32.3 °F 14.0 °F 36% 30.19 in 10.0 mi NW 10.4 mph - N/A   Clear
2:53 PM 37.0 °F 29.3 °F 16.0 °F 42% 30.22 in 10.0 mi NW 11.5 mph - N/A   Clear
3:53 PM 28.9 °F 22.8 °F 15.1 °F 56% 30.25 in 10.0 mi WNW 5.8 mph - N/A   Clear
4:53 PM 21.9 °F - 12.0 °F 66% 30.29 in 10.0 mi Calm Calm - N/A   Clear
5:53 PM 19.0 °F - 10.9 °F 71% 30.31 in 10.0 mi Calm Calm - N/A   Clear
6:53 PM 15.1 °F - 9.0 °F 77% 30.31 in 10.0 mi Calm Calm - N/A   Clear
7:53 PM 10.9 °F - 7.0 °F 84% 30.32 in 10.0 mi Calm Calm - N/A   Clear
8:53 PM 14.0 °F - 10.0 °F 84% 30.31 in 10.0 mi Calm Calm - N/A   Clear
9:53 PM 10.9 °F - 7.0 °F 84% 30.31 in 10.0 mi Calm Calm - N/A   Clear
10:53 PM 10.9 °F - 7.0 °F 84% 30.29 in 10.0 mi Calm Calm - N/A   Clear
11:53 PM 17.1 °F - 10.9 °F 77% 30.27 in 10.0 mi Calm Calm - N/A   Clear